Regional Weather Roundup
Issued by NWS Green Bay, WI

Home | Current Version | Previous Version | Graphics & Text | Print | Product List | Glossary Off
Versions: 1 2 3 4 5 6 7 8 9 10 11 12 13 14 15 16 17 18 19 20 21 22 23 24 25 26 27 28 29 30 31 32 33 34 35 36 37 38 39 40 41 42 43 44 45 46 47 48 49 50

000
ASUS43 KGRB 291510
RWRGRB

NORTH-CENTRAL AND NORTHEAST WISCONSIN REGIONAL WEATHER ROUNDUP
NATIONAL WEATHER SERVICE GREEN BAY WI
1000 AM CDT SUN MAR 29 2015

WIZ005-009-010>012-018-019-291600-
NORTH CENTRAL WISCONSIN

CITY           SKY/WX    TMP DP  RH WIND       PRES   REMARKS
IRONWOOD       CLOUDY    34  28  80 S21G26    29.49F
MANITOWISH WTR CLOUDY    30  28  93 S15G22    29.56F
ARBOR VITAE    MIX PCPN  32  28  86 S17G24    29.58F
EAGLE RIVER    LGT SNOW  30  24  79 S10G20    29.59F
LAND O LAKES   CLOUDY    30  26  83 S12G22    29.56F
RHINELANDER    CLOUDY    29  24  82 S20G26    29.62F HAZE
PHILLIPS       CLOUDY    30  27  88 S13       29.58F
ANTIGO         MIX PCPN  29  26  88 S17G23    29.68F
TOMAHAWK       CLOUDY    29  26  89 S9        29.64F FOG
MERRILL        CLOUDY    30  27  90 S10G17    29.67F
$$

WIZ013-073-291600-
NORTHEAST WISCONSIN

CITY           SKY/WX    TMP DP  RH WIND       PRES   REMARKS
IRON MOUNTAIN  LGT RAIN  32  20  61 S16G33    29.66F
MARINETTE      CLOUDY    36  18  48 S17G26    29.76F
OCONTO         CLOUDY    35  22  59 S10G21    29.78F
$$

WIZ017-030-035>037-045-291600-
CENTRAL WISCONSIN

CITY           SKY/WX    TMP DP  RH WIND       PRES   REMARKS
MEDFORD        CLOUDY    30  27  88 S13       29.64F
WAUSAU         CLOUDY    30  26  85 S14       29.67F
MOSINEE        CLOUDY    30  28  93 S13       29.71F
MARSHFIELD     CLOUDY    32  28  85 S16       29.67F
WISC RAPIDS    CLOUDY    32  27  81 S14G23    29.74F
STEVENS POINT  CLOUDY    30  27  88 S13G20    29.71F
WAUPACA        LGT RAIN  34  28  78 S15       29.78F
SHAWANO        RAIN      34  26  71 SW7G17    29.79S
CLINTONVILLE   MIX PCPN  32  27  80 S14G22    29.79S
$$

WIZ038-039-048-051-291600-
FOX VALLEY

CITY           SKY/WX    TMP DP  RH WIND       PRES   REMARKS
NWS GREEN BAY  CLOUDY    37  24  59 S21G30    29.79F
APPLETON       LGT RAIN  32  23  69 S20       29.80F
OSHKOSH        FRZ RAIN  33  25  72 S22G36    29.80F
FOND DU LAC    FRZ RAIN  34  24  67 S25G38    29.83F
$$

WIZ022-050-052-291600-
EAST CENTRAL WISCONSIN

CITY           SKY/WX    TMP DP  RH WIND       PRES   REMARKS
STURGEON BAY   CLOUDY    34  19  55 S22G30    29.82F
MANITOWOC      CLOUDY    35  24  64 S23G32    29.85F
SHEBOYGAN      PTSUNNY   36  19  50 S23       29.88F
$$

LMZ563-521-522-541>543-291600-
LAKESHORE

STATION/POSITION TIME  TEMP    WIND        PRES    VSBY  WAVE
                       AIR SEA DIR/SP/G                  HT/PER
                 (UTC) (F)     (DEG/KT/KT) (MB)    (MI)  (FT/S)
SHEBOYGAN LKSHOR 1500   35     180/ 29/ 33 1012.3F
KEWAUNEE LKSHORE 1500   34     190/ 27/ 32 1010.3F
NORTHPORT PIER   1500   35     160/ 16/ 24 1009.8F
SISTER BAY LKSHO 1400   34     180/ 25/ 35   N/A
CHAMBERS ISLAND  1500   33     170/ 12/ 21 1009.5F
MENOMINEE LKSHOR 1500   33     170/ 17     1009.2F
$$



USA.gov is the U.S. government's official web portal to all federal, state and local government web resources and services.